Bell Fountain, Alabama
Current Conditions -  °F | °C
As of 5:15 PM on Sunday 21 Dec 2014 (Local Time) from KCQF Reporting Station
Overcast Overcast  
Wind Chill: 55°   Ceiling: 800
Heat Index: 55°   Visibility: 10mi
Dew Point: 54°   Wind: 3mph
Humidity: 94%   Direction: 50°NE
Pressure: 30.02"   Gusts: NA
Location:  30.6097°N, 87.6111°W
Report Text: KCQF 212315Z AUTO 05003KT 10SM BKN008 OVC020 13/12 A3002 RMK AO2
Loading
Personal Weather Stations






























Interactive Weather Map New forecast layout! Learn more

10-Day Weather Forecast

Advertisements
Track Severe Weather on mobile